Location: Casone le Fosse
(44.6547°N, 12.1103°E)
Time: 12:04:21
(UTC+00:00)

Cosmos 2266 Rocket - Pass Details

Date: 29 October 2020
Orbit: 935 x 1007 km, 82.9° (Epoch: 28 November)

Event Time Altitude Azimuth Distance (km) Brightness Sun altitude
Rises 16:24:04 0° 349° (N) 3,669 7.0 -4.2°
Reaches altitude 10° 16:26:34 10° 348° (NNW) 2,728 6.3 -4.6°
Maximum altitude 16:32:47 72° 266° (W) 1,035 4.4 -5.7°
Drops below altitude 10° 16:39:05 10° 183° (S) 2,756 6.6 -6.8°
Sets 16:41:37 0° 181° (S) 3,708 7.2 -7.2°
